Wind_Gust
25 25 25 24 24 24 24 23 23 23 22 21 20 20 18 18 18 16 16 15 15 15 15 16 15 15 15 15 15 14 12 18 15 16 18 11 5 5 6 8 9 10 8 13 18 19 20 19 19 19 21 19 15 17 17 18 19 16 20 13 15 13 19 22 20 19 20 18 16 15 17 21 18 20 22 27 27 26 22 22 18 19 18 15 15 13 11 12
26 26 26 26 26 25 25 25 24 23 23 22 21 20 19 19 18 17 16 16 15 15 15 14 14 14 15 14 14 12 16 15 17 18 18 8 6 7 5 8 6 6 6 16 19 20 21 21 21 19 21 19 13 16 12 13 13 16 13 16 16 20 19 22 24 19 21 22 19 18 17 16 14 14 20 28 17 24 26 19 13 16 14 12 11 12 11 12
26 26 26 27 26 25 25 25 25 23 23 23 22 21 20 19 19 18 17 15 15 14 14 14 13 13 13 13 13 11 12 14 18 19 14 10 9 7 7 8 8 6 13 16 20 26 26 23 19 18 21 19 17 19 14 18 17 11 20 21 17 24 23 26 29 31 25 27 28 19 20 21 17 23 27 32 29 28 24 14 11 13 11 12 11 13 15 14
26 26 26 27 26 26 25 25 25 24 24 24 24 23 21 20 19 18 17 16 15 15 14 14 13 13 13 12 10 14 15 15 17 19 13 11 10 10 9 10 11 9 14 21 26 29 28 28 26 22 25 25 20 15 16 18 21 16 23 16 21 22 20 20 27 29 31 34 32 22 23 26 21 17 20 21 28 27 21 11 12 11 10 11 11 13 16 16
26 26 27 27 27 27 26 25 25 24 24 24 24 23 21 21 20 19 17 16 15 15 14 13 13 14 13 11 11 12 12 19 21 17 16 12 11 11 12 12 7 14 19 22 27 28 28 27 27 18 23 17 18 14 14 15 12 21 17 16 18 20 21 19 25 26 27 31 28 33 23 17 17 23 20 24 23 19 16 9 8 9 10 12 12 14 17 16
25 26 27 27 28 28 27 27 26 25 25 24 23 22 22 21 20 19 18 17 16 15 14 12 13 13 13 8 14 14 12 11 18 17 12 13 12 12 14 10 12 14 19 21 25 21 22 19 17 20 18 22 16 21 18 22 21 25 17 21 15 20 19 18 21 27 30 34 33 23 19 22 22 18 24 26 20 15 14 14 9 9 14 14 11 13 14 11
25 25 26 27 27 27 27 27 27 26 25 25 25 24 23 21 21 20 19 17 17 16 14 12 13 14 13 11 15 16 21 19 12 13 13 11 14 13 9 10 10 17 17 23 24 22 14 18 19 18 22 17 9 25 24 24 28 30 25 23 17 22 23 22 20 24 33 29 22 19 18 20 19 19 22 27 21 20 15 9 8 11 15 16 15 15 16 15
25 26 26 27 28 27 27 27 28 27 26 25 25 25 23 22 22 22 20 18 17 17 13 11 12 12 11 17 17 18 22 20 16 16 13 10 11 12 7 16 18 18 20 23 21 20 17 22 21 28 18 23 18 19 19 23 28 27 23 28 15 20 21 22 21 26 24 16 17 19 19 17 19 18 18 17 18 19 19 12 12 13 13 13 16 19 18 17
26 26 26 27 27 27 27 27 28 27 27 26 27 25 23 23 22 22 21 19 18 16 11 11 11 8 6 12 15 22 21 16 16 16 17 15 13 14 15 15 19 22 24 25 22 25 23 12 18 20 18 16 18 21 19 19 20 12 18 18 16 16 17 19 20 19 19 15 17 20 17 20 25 26 24 22 22 24 20 13 12 12 11 11 12 13 12 13
27 27 27 27 27 27 28 28 28 27 27 26 27 25 24 23 23 22 21 20 19 16 11 10 10 5 12 16 17 19 21 18 17 16 15 13 13 14 18 21 22 24 28 22 26 21 16 22 19 13 19 19 24 27 25 21 19 20 22 28 19 16 14 15 19 16 15 15 15 20 15 20 17 13 16 22 26 28 26 23 14 12 13 11 11 11 10 11
27 28 28 28 28 28 28 29 29 27 27 27 26 25 24 23 22 22 21 20 21 16 10 9 5 8 17 21 22 14 16 18 14 15 15 12 12 13 18 23 22 26 25 29 27 21 17 21 14 14 20 25 26 24 21 22 28 22 18 17 15 11 14 17 19 19 14 14 13 18 17 17 20 20 22 26 29 27 27 23 21 14 12 13 12 11 8 8
27 28 28 29 29 28 29 30 30 29 27 28 25 24 23 22 22 22 21 21 22 16 11 7 5 15 18 21 26 22 20 15 15 16 14 13 14 16 16 16 17 20 19 24 22 23 19 19 22 27 18 14 22 19 31 30 20 13 15 15 9 12 16 15 18 13 15 18 15 23 21 14 13 13 24 28 28 28 25 24 24 24 18 13 10 10 9 7
28 28 29 29 29 29 30 31 30 29 28 27 23 22 22 21 21 22 20 21 19 9 8 6 9 16 18 19 24 19 16 18 17 15 13 12 15 12 15 13 15 14 19 19 16 13 13 12 19 23 26 23 27 27 26 23 12 15 11 10 9 10 9 18 13 11 14 18 16 12 15 15 20 26 28 26 28 30 24 23 24 24 27 18 11 9 9 8
28 29 30 30 30 30 31 31 29 29 29 25 24 22 22 22 21 20 19 17 22 18 11 8 12 18 13 17 17 15 17 15 10 12 13 14 17 15 11 15 16 13 12 17 14 10 11 14 18 16 29 21 27 33 31 25 20 12 11 11 9 9 13 18 10 10 14 11 12 15 18 12 20 27 32 33 31 26 27 24 24 28 25 19 17 15 14 13
29 29 30 31 30 30 31 32 29 30 28 27 25 25 22 22 21 19 17 17 13 11 11 8 17 13 16 18 13 14 13 15 18 16 17 18 18 17 14 14 17 13 10 12 16 13 11 9 13 15 21 27 30 21 17 11 16 17 16 10 7 12 10 14 12 11 15 9 14 23 16 15 21 27 33 34 30 25 27 28 24 26 26 21 16 12 12 14
29 30 31 31 31 30 31 30 30 27 27 28 26 28 25 18 17 17 14 13 17 16 17 17 18 18 23 15 19 14 16 19 20 20 16 17 11 14 15 12 13 13 15 9 9 14 11 12 17 18 25 19 23 12 14 12 10 18 16 6 10 10 11 12 16 16 18 16 9 10 15 15 17 29 31 32 27 23 23 27 27 24 22 20 20 11 11 20
30 30 31 31 29 31 30 29 29 28 27 28 29 27 20 17 14 13 18 14 13 13 14 20 18 21 10 23 18 20 21 24 15 15 19 18 16 17 13 13 17 12 10 12 14 16 11 17 18 17 21 18 14 16 13 17 9 12 10 9 11 12 11 14 20 22 18 13 12 11 19 16 22 30 30 25 27 28 29 27 28 26 19 17 21 22 11 14
30 31 32 31 32 31 29 28 29 26 27 28 24 23 25 18 13 14 12 12 17 19 19 24 23 22 21 19 24 22 20 20 19 20 16 17 15 18 13 18 11 10 13 15 11 18 12 16 14 9 12 17 14 12 17 15 26 18 21 10 10 9 17 20 18 26 26 13 16 13 17 18 24 28 29 25 26 28 30 29 28 31 22 18 20 23 17 14
30 31 32 32 32 31 28 27 27 25 25 28 29 21 15 14 15 14 17 14 14 12 14 17 23 17 23 22 20 13 16 17 15 19 13 15 14 17 11 21 17 14 19 16 19 15 14 13 15 15 12 17 27 21 15 19 26 20 18 17 14 12 14 13 28 30 28 23 20 18 17 16 20 24 22 21 22 26 28 27 27 28 26 25 22 23 19 17
30 31 32 33 32 30 29 27 25 23 22 22 22 16 11 11 11 13 16 20 21 19 17 15 23 21 20 16 22 15 17 17 18 18 18 14 19 11 16 13 18 15 21 11 13 14 12 14 10 13 17 19 20 16 14 28 22 22 19 10 14 15 15 22 23 20 20 18 13 20 22 17 18 18 16 16 17 21 24 22 22 21 19 20 20 19 18 14
28 32 34 34 33 32 31 31 25 22 16 18 18 16 10 12 14 17 19 20 21 22 27 28 19 22 19 16 18 20 19 16 17 16 25 17 20 13 17 21 21 15 17 11 13 15 14 12 13 20 16 16 19 18 17 17 23 22 16 13 14 13 16 19 21 19 18 15 13 16 19 22 23 19 18 17 16 19 21 21 22 20 17 17 19 18 17 14
28 30 34 34 33 32 32 33 31 23 16 14 14 15 16 13 10 15 13 18 20 24 27 26 22 17 23 20 17 15 14 21 18 16 15 20 15 22 24 20 13 19 10 12 11 13 12 13 15 12 17 11 12 18 20 21 16 15 16 15 18 18 16 23 26 23 16 17 19 16 16 22 18 17 22 21 17 19 19 21 21 19 17 18 18 20 20 15
27 31 31 34 31 34 34 34 33 24 13 14 14 20 15 15 14 17 16 18 25 19 21 22 27 15 19 20 17 19 22 19 23 16 18 18 16 21 20 14 10 16 18 16 11 9 9 17 14 12 9 11 14 13 17 14 18 16 21 16 15 25 21 12 24 15 16 22 17 16 16 19 24 22 18 18 23 26 23 19 20 17 19 18 19 19 21 21
27 28 32 32 34 34 36 35 34 17 17 22 20 15 16 15 15 20 15 15 16 19 20 19 18 14 14 24 22 22 23 19 17 17 16 20 27 12 16 11 14 15 15 10 9 14 16 14 9 9 10 11 17 12 12 13 13 14 15 15 16 16 15 22 20 19 17 24 21 21 22 16 10 18 18 24 21 22 24 18 17 13 15 16 17 19 20 21
27 28 31 33 32 34 39 31 15 17 21 16 18 11 16 13 15 13 12 13 21 23 19 15 15 19 16 14 20 26 22 19 16 18 19 16 21 22 13 16 16 11 9 14 17 16 14 15 8 11 10 10 8 13 19 17 10 14 16 18 20 22 23 26 24 20 15 14 17 21 20 16 13 16 19 17 15 13 19 14 13 14 14 15 15 14 17 18
26 27 31 30 31 34 37 12 12 27 25 17 16 17 18 15 16 10 12 10 12 23 17 16 24 24 22 19 26 25 26 23 14 21 13 13 12 16 17 17 19 8 14 14 19 16 14 12 11 16 14 12 21 16 12 13 13 10 16 18 21 14 20 24 19 14 13 19 16 19 26 17 10 13 12 13 15 13 16 13 12 15 15 13 13 15 15 15
25 26 27 27 26 29 22 8 22 27 20 16 20 20 20 15 13 11 13 16 12 20 22 26 15 20 16 16 22 18 32 26 14 15 14 9 16 9 17 19 19 22 17 21 20 16 9 14 12 11 19 13 13 18 15 13 16 12 12 16 19 20 20 24 26 15 19 20 23 25 24 21 12 13 16 13 18 14 16 18 17 14 13 12 10 12 12 16
25 25 27 27 29 15 17 22 24 20 20 16 17 18 19 17 15 12 18 10 21 15 22 21 11 16 12 12 17 22 22 20 22 18 17 13 18 23 15 12 13 15 15 16 15 15 16 16 12 15 13 17 14 16 11 11 24 19 11 22 19 16 22 24 20 16 18 16 13 19 16 22 12 13 18 12 15 15 19 15 19 20 18 12 13 16 16 15
25 24 23 26 31 29 16 16 17 20 19 19 16 18 22 15 16 16 13 15 19 22 23 18 14 14 16 18 23 18 23 24 19 19 14 13 12 23 12 12 10 16 9 14 10 13 12 15 11 10 18 20 15 11 8 13 19 13 9 12 13 16 20 20 18 17 14 20 17 16 12 26 14 9 12 13 13 16 15 15 18 18 20 19 17 13 16 17
26 24 21 21 28 12 11 14 17 20 22 18 19 19 16 12 12 13 13 11 18 12 18 17 19 19 18 21 23 23 23 23 18 20 16 24 18 14 18 22 16 13 13 14 19 15 12 5 10 13 17 16 13 11 10 7 8 10 14 15 16 14 14 18 15 16 16 15 20 21 16 19 16 9 10 11 16 15 15 16 18 20 20 22 21 20 16 18
27 27 19 14 17 17 20 17 15 17 16 18 20 20 15 16 14 12 8 15 19 17 16 17 22 16 20 17 18 26 20 23 25 16 16 18 18 19 19 14 14 19 12 14 14 12 14 13 15 15 15 11 10 10 11 8 10 10 15 16 17 13 12 14 11 13 19 13 15 17 21 19 21 12 18 18 18 20 15 16 17 19 22 21 16 21 16 16
28 29 25 18 19 17 15 14 23 19 19 19 18 17 15 14 15 10 12 11 22 22 17 19 19 23 18 12 17 21 23 20 15 23 22 21 14 12 12 9 11 12 12 9 10 14 15 14 13 10 9 15 9 17 16 15 13 16 13 17 16 13 12 11 15 20 10 14 20 24 24 22 19 17 18 18 18 18 20 20 19 17 18 17 19 21 20 15
30 31 31 24 15 14 19 24 19 17 16 17 16 13 15 15 14 20 22 14 14 10 15 14 16 20 21 19 16 14 14 19 20 17 14 19 8 11 10 18 14 16 14 15 10 15 12 16 12 14 14 10 15 17 15 13 10 12 15 13 17 12 12 12 20 13 14 16 19 22 23 27 16 18 17 22 17 20 22 20 19 19 18 17 18 19 18 18
32 31 24 13 15 20 17 14 16 16 15 14 14 13 16 12 15 12 18 15 8 15 20 17 23 20 20 19 12 14 18 17 16 15 14 17 12 8 15 12 10 10 11 5 9 14 9 12 13 15 15 15 17 14 13 16 16 14 13 14 13 19 22 16 16 19 17 12 17 19 17 12 13 12 26 19 22 18 19 19 16 16 16 14 19 22 19 13
37 31 18 16 16 22 22 19 13 10 11 14 17 17 13 15 12 15 17 10 13 18 16 17 22 15 16 9 12 18 11 18 14 18 17 11 12 10 10 13 16 10 15 12 11 10 9 11 17 10 11 12 13 10 11 17 16 18 23 18 18 12 14 15 15 20 14 15 16 20 18 14 20 21 18 20 23 21 20 19 19 18 17 16 14 14 13 13
25 19 15 18 17 14 16 17 10 7 10 15 17 15 16 12 12 8 15 17 17 20 20 23 15 17 19 15 13 14 11 14 24 22 11 12 14 12 12 16 16 12 11 9 7 8 11 10 9 9 8 7 13 12 17 11 17 18 15 13 17 12 22 19 13 10 14 22 16 13 13 15 16 23 25 26 19 24 23 22 21 20 19 17 16 16 18 21
22 22 18 15 20 14 13 12 13 9 12 16 14 12 12 12 8 17 19 22 18 16 19 19 21 18 18 18 15 14 18 17 19 22 13 12 16 14 11 12 14 16 13 13 5 15 14 13 10 12 15 13 7 13 12 13 13 17 18 16 10 14 19 24 20 8 14 18 19 16 13 17 16 10 15 17 19 18 19 20 22 18 19 18 16 18 22 22
23 20 18 22 17 15 15 11 11 9 13 12 12 7 11 12 19 19 26 29 22 17 25 12 20 18 17 16 19 18 22 16 16 12 12 13 12 16 9 18 13 13 15 15 15 10 11 15 15 13 14 14 9 10 14 10 10 18 19 11 15 13 16 14 22 12 14 13 12 14 17 20 23 12 14 17 19 22 22 21 21 19 19 17 16 17 19 20
15 15 17 12 10 13 11 13 10 12 14 16 16 12 13 14 15 27 27 26 22 21 18 13 13 10 12 12 13 20 21 15 14 17 16 18 17 14 14 12 16 10 11 16 15 10 12 10 12 12 13 14 10 14 10 10 18 18 15 18 18 17 8 12 9 12 22 12 11 13 11 12 15 14 20 14 21 21 21 23 22 21 19 19 18 18 18 16
17 18 11 10 14 14 10 13 11 12 17 17 17 15 15 12 17 27 36 31 25 20 22 14 15 13 14 20 15 11 20 14 13 17 13 12 13 13 11 11 14 17 14 14 15 12 12 9 9 19 12 10 16 16 11 10 13 17 18 15 16 14 17 16 15 10 18 22 13 17 12 11 14 14 13 18 20 18 18 20 20 21 20 18 18 18 17 17
17 15 15 8 13 13 15 15 14 19 19 18 16 11 12 13 14 31 41 37 34 23 20 15 15 14 15 19 18 16 17 15 18 14 11 16 15 13 13 14 9 15 10 14 16 16 11 14 9 16 14 15 13 14 15 17 18 15 14 10 12 12 14 12 7 14 16 23 23 20 15 12 16 18 18 19 18 20 21 18 17 17 19 19 17 16 15 13
15 14 13 10 12 12 14 15 20 16 22 20 15 17 13 17 22 30 32 37 34 33 22 26 19 20 22 19 15 16 13 14 11 12 10 11 15 14 16 11 11 11 16 11 13 15 10 9 13 8 9 13 14 13 10 15 18 16 18 16 14 14 15 14 14 10 18 21 20 26 22 13 16 17 15 17 18 20 19 18 17 17 16 15 16 15 13 12
15 18 16 17 13 12 13 18 16 18 20 13 10 14 20 25 19 29 28 29 29 25 24 24 21 20 20 18 11 10 15 11 10 12 10 14 19 16 13 14 14 11 10 17 11 18 10 11 12 14 10 11 15 13 17 13 11 17 17 13 14 13 12 15 16 16 23 12 18 13 22 14 11 14 22 16 16 16 18 18 19 18 16 14 15 13 14 14
18 20 18 14 10 12 16 16 12 16 13 10 9 12 16 19 19 30 25 29 24 20 16 19 13 17 16 16 11 11 13 13 9 17 13 11 18 10 15 15 15 17 12 10 13 13 15 11 13 8 12 10 14 16 19 17 17 15 11 14 14 18 17 13 14 12 20 16 16 20 17 11 11 17 18 17 17 17 17 18 15 15 13 14 16 14 14 12
21 16 19 17 14 13 21 19 15 14 14 15 10 11 12 21 21 31 18 23 18 23 15 17 19 15 20 17 12 10 15 10 17 11 16 14 16 15 17 16 15 15 13 12 8 9 13 9 12 12 12 9 7 11 11 13 13 12 14 15 18 16 18 14 10 15 18 14 21 22 21 16 15 17 18 17 17 17 18 16 17 17 14 16 16 13 14 14
10 11 16 17 17 16 21 18 18 17 10 6 6 10 9 15 22 18 19 26 28 20 23 23 24 18 17 15 11 11 15 11 15 12 14 15 16 14 15 18 14 17 10 7 8 10 8 8 10 13 15 14 12 12 9 12 11 18 9 15 15 16 16 15 14 18 17 13 21 16 22 20 16 16 16 16 17 17 16 15 18 18 15 15 13 15 15 14
16 12 11 11 17 17 17 17 18 15 11 12 8 13 12 16 20 22 26 16 17 20 19 16 15 15 13 12 9 9 11 12 15 14 11 12 15 18 12 16 13 10 7 7 6 10 9 11 13 12 8 9 11 8 8 8 17 13 19 15 18 18 14 14 19 22 19 28 16 15 17 21 15 15 15 17 16 14 14 15 16 16 18 16 14 16 15 20
14 13 15 8 10 10 12 14 18 15 12 15 12 12 16 16 19 18 22 19 21 37 19 21 14 13 19 13 9 8 9 10 9 13 15 15 16 14 13 14 15 10 12 11 10 10 10 10 14 7 5 13 15 13 21 23 19 21 18 16 17 19 20 18 14 16 12 20 26 16 17 19 16 16 15 14 14 13 16 16 15 15 17 17 19 21 19 18
19 21 16 17 15 16 16 19 24 20 17 12 11 11 12 13 19 20 15 13 27 22 26 13 20 19 20 16 9 10 7 8 8 9 10 10 10 10 12 12 13 9 10 11 8 7 14 7 6 8 10 8 14 20 19 20 18 24 21 20 25 21 19 18 19 18 20 18 18 18 17 16 16 15 14 14 13 15 15 15 16 18 17 17 18 17 15 15
17 18 18 21 17 20 15 16 19 15 17 18 12 14 18 18 19 20 21 14 11 13 24 13 14 16 18 15 13 9 9 6 11 11 8 9 10 8 9 9 10 8 12 8 5 9 14 8 11 7 12 13 8 15 18 19 20 19 17 19 19 20 21 21 21 19 23 17 17 18 18 16 14 14 18 15 14 15 16 17 17 16 17 17 16 16 15 16
20 17 17 17 20 14 17 16 16 15 16 15 15 13 12 23 23 18 19 21 15 13 16 14 13 13 15 14 11 9 10 11 11 10 10 14 14 9 13 11 10 10 7 8 8 7 11 8 8 9 13 9 10 17 18 21 20 17 11 11 17 16 17 13 25 13 17 17 15 16 17 14 11 15 17 17 19 20 19 19 18 17 16 16 16 16 17 18
20 17 17 14 17 12 19 15 16 16 16 16 15 16 21 19 22 19 12 16 18 17 16 10 12 12 13 10 15 9 9 12 11 13 16 16 13 14 10 11 12 12 8 8 6 8 7 10 8 9 15 9 7 16 16 14 17 15 13 14 15 13 13 16 16 14 18 23 21 16 14 15 14 13 16 15 17 18 18 18 15 15 16 17 16 17 18 17
Wind_Speed
19 19 19 19 19 19 19 18 18 17 16 16 16 15 15 15 13 12 12 11 11 11 11 12 12 12 12 12 11 10 9 3 2 0 0 7 3 5 3 3 6 8 7 2 1 3 3 4 6 5 6 3 3 0 3 4 3 3 3 5 7 1 4 0 3 2 4 5 4 9 9 11 4 1 3 6 13 11 11 12 8 13 12 8 2 1 2 4
20 20 20 20 20 19 19 19 19 18 17 17 16 16 15 15 14 13 12 12 11 11 11 10 11 11 11 10 10 8 6 1 1 2 10 3 5 6 4 7 6 6 4 1 2 1 1 3 4 7 6 4 2 4 1 3 3 3 2 6 6 0 0 1 2 4 5 6 9 8 5 6 4 3 1 6 3 7 11 9 8 10 9 6 2 2 2 4
19 20 20 20 20 20 20 19 19 18 18 19 18 17 16 15 14 13 13 11 11 11 11 11 10 10 11 10 9 6 5 1 1 4 8 9 8 6 6 7 6 4 2 1 1 2 2 1 2 4 2 4 3 6 4 3 5 1 9 8 4 1 4 4 4 5 6 9 11 9 4 8 2 1 1 6 6 7 9 6 7 7 7 6 3 4 6 5
18 19 19 20 20 20 20 20 20 19 20 19 19 19 16 16 15 14 12 12 11 11 10 10 11 10 10 10 8 6 0 1 1 3 2 7 9 7 8 7 6 4 1 2 1 2 1 3 5 1 3 1 4 0 3 4 5 1 7 4 5 4 8 3 4 5 6 9 9 9 4 8 5 5 3 9 10 6 3 2 2 7 7 5 4 5 4 3
18 19 19 19 20 19 20 20 20 19 19 19 18 17 17 16 14 13 12 11 11 11 10 10 10 11 10 8 8 2 2 3 2 2 0 7 8 8 9 5 5 4 3 2 4 2 2 3 2 1 3 3 1 1 1 3 3 4 6 9 10 7 9 1 2 5 8 9 9 5 7 5 1 8 10 7 10 2 1 2 4 5 5 5 4 5 2 1
18 19 19 19 19 20 20 21 20 20 20 19 19 18 18 17 14 13 12 11 10 10 10 10 10 11 10 3 4 1 2 2 2 2 8 10 8 9 5 6 5 3 3 2 1 0 3 2 3 1 2 2 1 3 1 3 2 9 5 10 6 9 10 0 4 6 8 7 7 3 3 3 5 5 5 11 9 3 2 1 4 7 9 7 6 6 3 1
18 19 19 19 19 19 20 21 21 20 20 20 20 20 18 16 14 13 12 11 10 10 9 10 9 11 9 1 2 1 3 4 2 4 10 9 9 5 5 6 5 2 2 0 0 1 1 1 1 5 1 3 0 4 1 5 4 12 7 9 10 11 10 6 10 9 9 11 6 3 3 6 2 9 2 8 6 4 4 5 5 9 11 10 6 4 4 4
19 19 19 19 20 20 20 21 22 21 21 20 19 19 17 16 14 13 12 10 9 9 9 8 9 9 8 0 2 2 1 3 9 3 9 7 4 5 6 3 4 3 1 5 2 2 2 4 4 3 2 6 2 5 6 14 8 9 7 12 9 10 8 10 11 11 11 9 5 9 10 4 7 4 2 5 5 5 4 4 6 7 9 9 10 5 3 1
19 19 20 20 20 20 20 21 22 21 20 20 20 19 18 16 14 12 11 10 9 9 8 8 8 6 1 0 1 4 4 4 7 6 7 5 6 3 4 2 6 4 2 1 5 2 2 3 2 3 5 6 2 4 1 11 7 3 11 8 7 8 9 11 11 10 10 5 7 11 8 5 10 9 7 2 4 3 5 6 5 6 8 8 8 5 1 1
19 19 19 19 19 19 19 19 19 20 20 20 20 20 18 16 14 12 11 9 9 9 8 7 7 2 1 2 3 3 4 3 3 6 7 6 4 1 2 7 3 2 0 4 1 3 4 8 5 1 12 6 2 5 4 13 5 3 10 10 12 10 9 7 11 7 6 4 4 6 3 1 3 2 2 2 2 2 6 5 4 7 7 6 6 5 2 1
18 18 18 18 18 17 17 17 18 18 19 19 20 20 19 16 14 12 11 9 8 7 6 6 3 1 1 2 2 2 7 4 2 4 8 6 4 2 7 5 4 2 5 9 7 8 10 7 7 5 3 2 7 6 6 5 6 7 8 12 8 5 7 9 11 11 8 4 4 8 3 1 6 5 1 0 1 1 6 4 5 6 5 4 5 5 1 1
16 16 16 16 17 17 18 18 19 21 21 20 20 20 18 16 14 11 11 9 8 7 4 1 2 1 1 1 3 6 6 4 3 5 7 7 4 9 12 8 6 9 5 5 8 7 7 8 4 3 3 1 6 2 5 2 6 4 11 8 5 7 5 7 10 4 9 6 8 10 10 8 8 3 1 2 1 2 4 4 4 5 4 3 4 3 1 1
17 17 17 17 17 18 18 19 20 20 20 19 18 18 17 16 14 12 10 8 6 7 6 3 2 1 1 4 6 8 6 2 5 5 4 6 4 5 7 6 7 7 8 6 6 4 1 2 9 9 1 5 3 2 2 6 4 5 5 5 5 4 3 4 5 7 10 8 8 5 4 7 5 3 2 0 2 3 4 3 3 3 3 3 3 3 1 2
18 19 20 20 19 19 19 20 20 20 19 17 19 18 16 16 14 11 9 8 7 8 4 4 2 0 0 3 6 4 4 5 5 2 5 4 3 8 5 7 8 5 7 10 10 3 3 2 9 7 1 8 4 2 6 3 4 4 0 5 3 4 1 3 3 6 9 5 1 5 5 5 5 6 5 4 0 4 2 1 3 3 3 2 3 4 2 1
20 21 20 20 19 19 20 20 20 20 19 19 19 20 17 17 13 10 8 6 8 5 4 4 0 2 2 5 6 9 7 4 5 6 5 2 1 7 8 9 10 9 5 6 2 1 3 3 6 3 2 3 7 6 2 3 3 2 4 1 2 6 1 2 1 7 7 2 8 13 4 5 6 5 5 1 2 3 3 2 2 2 1 1 2 3 2 0
20 19 20 19 19 21 19 20 19 19 20 20 19 21 20 14 11 10 7 5 4 6 2 1 1 0 1 3 1 9 1 4 8 10 4 5 2 5 9 8 9 9 4 3 0 0 2 2 3 2 4 4 9 6 5 5 4 5 6 0 1 3 1 2 2 1 9 7 2 3 3 1 6 7 6 5 1 2 3 1 1 1 1 1 2 2 2 1
19 19 19 18 18 19 20 20 19 20 20 20 22 21 13 11 8 7 8 6 3 2 1 1 2 1 1 2 3 2 2 3 3 1 1 4 5 6 5 5 4 5 5 7 5 3 2 2 1 3 4 5 4 7 5 5 2 1 2 3 2 4 1 3 0 3 6 7 4 6 7 5 2 2 5 3 3 1 1 1 1 1 1 2 2 1 1 1
19 19 18 19 18 19 18 20 19 20 21 21 19 15 14 10 5 4 5 6 2 4 3 2 1 2 5 2 0 3 1 3 1 4 5 5 8 7 4 3 5 3 4 4 4 2 2 0 3 3 2 2 2 4 3 4 6 3 1 4 3 1 2 6 3 3 7 6 10 5 7 3 3 4 4 4 3 1 3 2 2 1 1 1 1 0 0 1
19 19 18 18 17 19 19 20 20 20 19 21 18 13 9 3 1 2 2 2 1 1 1 1 2 2 3 4 5 4 3 6 2 2 6 8 3 3 0 1 3 1 2 1 4 2 2 3 4 4 4 1 4 7 7 8 7 7 8 6 6 6 2 4 1 3 12 7 8 9 8 5 4 5 5 4 3 3 2 0 0 1 2 0 0 1 0 0
19 19 19 19 19 22 21 19 19 19 17 13 9 6 2 3 3 1 2 2 2 5 1 1 4 3 4 4 1 3 4 1 2 5 4 2 0 2 3 1 1 1 1 3 1 3 3 4 4 4 6 10 8 8 8 5 8 5 5 5 6 5 1 2 4 4 7 6 3 7 8 8 7 8 9 6 4 1 1 0 1 1 1 1 1 1 0 0
20 21 21 20 19 22 23 21 20 18 11 2 2 2 2 2 4 3 5 5 4 6 7 6 7 6 6 1 3 3 3 3 2 2 4 1 1 3 4 1 1 4 5 3 2 2 7 5 5 9 8 12 13 8 6 4 4 7 7 6 4 5 4 4 5 5 1 5 1 4 6 5 6 8 8 4 5 3 3 2 3 3 2 2 2 1 1 0
20 21 22 22 20 23 23 23 21 17 3 2 1 2 1 2 2 5 1 4 8 6 5 8 5 5 4 9 8 4 4 1 5 7 4 2 3 1 3 1 1 6 3 1 2 3 5 2 3 8 11 5 7 12 9 9 6 5 7 7 7 3 2 3 5 4 4 8 4 5 8 5 7 6 4 6 6 3 5 6 5 5 4 3 3 2 1 1
21 22 22 23 22 25 25 23 22 10 0 5 5 5 4 5 5 5 2 0 6 3 5 4 5 10 10 10 5 4 4 2 5 3 2 2 0 4 2 4 5 3 4 0 6 4 2 5 7 8 6 2 0 9 10 8 6 8 6 8 7 6 7 2 1 6 5 2 5 5 8 4 2 1 1 3 3 4 7 7 4 4 6 6 7 5 4 3
22 21 22 23 23 25 26 25 17 4 8 7 3 2 8 9 6 6 3 1 3 8 4 5 6 6 6 5 3 5 4 2 2 4 2 4 4 4 2 4 7 6 4 0 6 9 5 4 2 1 2 2 3 5 2 8 7 4 9 7 7 3 4 10 7 4 5 5 10 10 7 4 4 1 2 1 1 7 5 4 2 0 1 1 2 2 3 6
21 21 21 24 23 26 29 20 5 5 7 4 0 4 7 7 6 4 2 3 2 5 4 3 4 0 2 1 4 2 0 2 4 3 4 5 3 0 3 3 3 4 3 3 8 4 1 4 1 2 0 0 1 4 1 10 6 1 3 11 10 6 9 10 15 13 5 4 3 12 6 4 4 3 2 1 3 3 2 5 3 3 2 3 4 4 2 1
20 21 21 21 24 27 26 3 2 8 8 1 3 10 10 8 7 3 3 3 2 5 4 3 1 1 1 0 2 4 3 4 6 6 4 5 5 2 1 2 0 3 1 5 6 3 2 5 5 4 3 4 6 4 1 4 6 5 4 10 11 9 13 14 10 8 6 7 5 1 11 2 4 4 3 0 4 2 1 2 4 4 3 3 3 3 4 4
20 20 21 20 20 23 10 2 4 8 4 4 11 12 12 8 6 2 3 4 2 2 1 2 1 0 0 3 3 5 2 5 4 2 2 1 0 0 0 6 2 2 2 1 6 2 3 7 7 5 6 5 7 5 0 5 7 3 3 10 11 11 14 11 7 6 2 1 4 6 6 7 2 3 4 4 4 4 3 2 3 3 4 4 4 3 4 3
19 19 18 20 18 12 4 3 8 4 3 6 9 11 11 9 4 4 5 2 0 4 1 2 0 1 1 1 7 3 5 2 2 1 2 3 2 3 2 5 2 4 1 7 8 4 1 3 4 5 5 5 3 2 1 3 3 3 4 15 9 10 7 9 10 7 4 8 5 5 4 7 2 3 6 5 7 4 2 3 3 3 2 4 4 4 4 5
19 18 18 18 18 11 3 2 1 4 5 5 9 9 9 4 5 7 3 1 3 1 5 1 5 0 1 3 0 0 2 0 1 3 1 1 0 2 1 4 1 0 3 8 5 1 2 3 3 5 3 2 2 3 2 5 2 1 6 7 7 9 9 12 9 8 3 7 7 4 2 9 2 3 6 3 3 3 2 1 3 2 3 4 4 4 4 3
20 18 16 16 11 1 2 1 5 8 6 8 9 11 6 2 2 2 2 1 1 2 1 2 2 1 2 3 2 1 2 2 2 2 1 2 1 3 3 0 1 4 4 7 4 3 1 2 5 5 0 1 1 2 0 3 2 3 8 8 6 8 7 4 6 5 6 5 1 1 3 8 5 3 0 3 3 2 1 2 3 3 2 1 1 3 3 3
20 19 14 11 3 2 2 5 8 4 5 6 9 6 3 7 3 4 1 3 0 4 2 1 3 5 1 2 1 2 3 2 1 1 1 3 3 3 3 3 5 6 6 7 5 7 3 2 2 0 1 2 1 4 3 2 3 1 2 5 6 4 6 5 4 6 6 1 3 0 8 7 7 2 4 2 3 5 4 5 4 3 2 1 0 1 2 2
21 21 17 8 5 1 3 2 1 4 6 8 5 5 4 1 5 2 1 3 1 4 0 2 2 1 4 0 3 2 4 0 0 1 2 1 1 1 1 4 0 2 5 1 2 6 2 2 3 3 3 7 2 4 6 7 7 2 7 6 8 2 3 2 4 5 1 4 3 10 10 10 8 1 3 7 1 3 2 6 6 5 5 4 3 3 3 2
23 21 21 8 6 3 6 8 6 6 6 6 3 3 3 5 0 3 1 2 1 1 4 1 3 5 2 3 4 4 4 5 3 2 2 1 2 3 1 2 2 3 3 3 3 4 3 6 3 3 5 1 3 4 5 3 4 4 5 7 7 3 3 3 1 1 3 3 3 9 6 6 1 2 3 8 9 7 4 4 4 7 6 5 6 6 6 5
23 20 10 4 7 9 6 3 3 4 6 5 3 5 7 3 1 6 0 1 2 2 3 3 9 6 1 3 5 7 4 2 3 2 4 1 3 1 3 5 1 5 5 1 3 1 3 3 3 1 1 2 2 1 1 1 2 1 2 7 6 8 6 5 3 6 7 5 4 0 3 2 4 2 8 2 11 7 4 7 5 5 6 6 6 7 7 6
25 16 8 3 3 8 13 10 5 1 2 3 8 5 3 2 2 0 1 3 2 3 4 6 2 1 5 1 2 2 3 1 1 1 1 2 1 1 0 2 3 5 3 4 2 2 1 3 4 3 3 2 3 1 2 2 4 2 3 3 7 1 6 5 5 8 4 4 6 6 1 2 4 2 7 8 9 4 8 8 8 7 6 7 7 6 4 4
14 7 1 2 2 4 7 6 3 2 2 6 5 3 1 3 0 0 0 1 1 2 8 8 5 3 2 2 3 3 5 1 2 3 0 2 2 2 1 0 2 1 2 2 2 1 4 3 2 5 3 4 1 1 2 2 2 2 5 3 0 3 12 6 5 4 7 9 4 1 5 6 3 8 7 6 3 9 9 9 7 6 7 7 7 5 4 3
7 8 5 5 3 3 6 5 6 4 6 7 5 0 3 1 2 2 2 1 1 1 3 4 4 1 3 2 1 3 1 3 1 3 0 1 3 3 2 0 1 2 3 5 1 1 3 3 5 1 4 0 1 4 4 4 3 4 5 1 1 2 7 8 6 2 4 6 1 2 3 3 2 3 3 6 6 7 9 7 6 5 5 8 4 4 3 3
6 3 3 5 8 3 5 6 6 4 3 4 2 5 1 0 0 1 1 1 2 3 3 1 3 3 2 2 3 1 3 3 3 2 1 0 1 2 1 1 7 5 2 1 6 2 2 1 3 3 1 3 6 4 5 6 6 7 3 2 4 0 5 4 7 3 5 3 2 2 2 3 3 5 4 2 6 7 7 5 6 6 6 6 4 5 5 5
2 2 3 4 2 6 4 7 5 5 2 4 0 2 1 2 0 1 4 4 1 2 2 1 1 2 2 5 1 3 1 0 0 1 4 1 2 2 1 2 3 7 4 8 6 1 4 2 2 5 4 1 4 6 3 5 5 3 2 6 1 6 2 2 1 4 7 5 4 0 4 3 1 5 13 8 8 8 8 7 6 6 8 7 7 7 6 7
4 4 2 2 3 5 5 6 4 4 4 2 2 1 2 1 1 2 2 0 1 2 1 1 3 1 3 4 1 1 3 1 4 1 2 1 4 2 2 4 3 1 8 7 3 1 1 2 1 5 5 4 4 2 2 2 5 7 8 5 5 2 1 6 2 3 7 7 4 6 3 1 2 2 5 10 9 8 10 9 7 8 8 6 6 6 6 7
1 2 4 4 4 1 8 7 3 1 1 2 1 1 1 1 1 2 5 3 1 1 3 2 1 0 1 5 8 1 1 1 1 1 1 2 2 1 4 3 1 1 4 7 9 4 2 2 1 3 6 3 1 1 2 4 4 4 5 2 4 2 2 2 2 5 4 7 6 7 4 0 4 6 5 6 7 8 8 10 9 9 8 7 5 5 5 6
2 2 2 4 6 4 6 2 1 1 2 1 2 2 2 1 1 1 0 1 2 1 0 1 2 2 1 3 5 6 0 2 0 3 2 3 1 3 2 3 6 3 4 1 1 1 3 2 4 3 2 4 2 4 4 7 11 7 6 2 3 3 6 6 6 1 6 4 6 4 7 4 2 4 3 3 8 8 6 9 9 8 8 6 5 5 4 4
2 3 6 7 7 0 3 1 2 1 0 3 2 2 1 1 0 2 0 0 0 1 1 1 2 1 2 3 3 3 1 1 1 4 3 4 3 3 3 5 7 7 5 2 2 2 4 2 2 3 6 5 3 7 10 7 7 9 6 3 6 4 1 4 6 7 9 4 6 3 5 2 2 4 8 4 5 5 5 8 10 7 6 6 6 6 5 6
1 2 7 6 1 4 3 2 0 1 3 4 0 2 2 2 2 1 0 0 1 1 1 1 3 4 4 3 1 2 1 1 2 3 2 1 4 3 7 8 6 3 3 1 3 2 1 2 5 2 2 3 6 7 8 7 6 3 2 2 3 4 8 6 7 4 8 2 4 8 5 2 1 3 3 8 8 9 8 6 8 9 6 6 5 4 4 4
2 2 3 7 5 4 2 4 4 2 2 1 1 1 1 0 4 3 2 1 1 0 0 2 4 1 4 2 4 2 1 4 1 2 6 3 2 1 8 9 8 5 2 4 4 1 4 1 2 4 5 3 0 1 2 4 2 0 2 5 9 7 3 3 4 3 7 3 2 6 5 3 2 3 7 6 7 7 6 7 6 6 6 5 4 4 4 5
2 1 5 5 4 3 0 1 1 1 1 1 1 2 0 1 0 3 3 1 2 1 2 3 4 0 6 5 3 1 2 0 8 2 1 3 1 2 1 7 6 2 2 4 2 4 1 1 4 5 6 7 6 5 3 3 3 7 4 9 5 6 9 8 6 6 6 3 7 3 11 10 6 5 8 7 8 10 9 7 8 7 4 4 4 4 6 7
0 3 1 4 7 3 2 3 1 1 2 2 0 1 1 3 2 1 2 0 4 1 1 0 2 4 3 1 1 2 3 3 5 5 1 5 1 2 2 6 5 5 4 2 3 4 3 4 1 7 3 5 6 1 1 4 10 5 10 5 9 6 4 7 8 7 11 14 6 1 4 11 5 5 6 8 7 7 6 5 5 4 4 4 6 7 8 7
1 1 3 1 1 3 4 3 3 3 5 2 3 0 2 1 0 0 2 1 1 3 2 6 3 2 3 5 2 0 3 2 2 5 3 3 5 1 3 4 3 0 4 1 2 3 3 3 2 3 2 2 3 9 14 10 7 7 9 9 8 7 11 11 7 10 3 9 12 8 7 11 4 5 6 6 7 7 6 4 3 3 4 8 10 9 7 6
1 1 0 2 2 2 2 8 8 6 5 3 1 2 2 2 2 3 3 1 2 2 3 1 8 9 11 8 3 2 0 2 2 0 1 4 3 3 3 3 3 6 2 2 3 1 4 0 0 2 3 5 10 13 12 14 6 11 10 9 9 11 9 10 5 2 8 10 9 10 11 10 6 5 7 6 4 6 5 4 6 8 8 8 8 8 8 9
2 2 3 3 0 3 3 4 3 3 3 1 3 3 2 3 3 1 0 3 1 2 3 2 4 10 9 9 2 2 2 3 6 4 1 5 1 2 3 2 3 2 2 0 0 3 5 1 3 1 4 4 5 10 11 12 12 8 6 10 12 12 11 10 12 12 15 9 8 11 12 7 0 3 5 3 4 6 9 10 7 8 10 10 9 9 9 9
3 2 0 1 4 4 3 4 5 6 2 3 1 3 1 3 2 2 1 3 5 4 5 6 4 5 5 8 8 5 4 7 6 6 7 8 7 4 5 2 4 3 1 1 2 2 4 1 2 3 6 3 4 12 11 12 12 9 5 6 9 11 11 5 10 5 9 10 10 11 10 5 4 2 5 5 7 9 9 8 8 8 8 10 9 9 9 9
2 3 2 1 0 1 3 4 4 3 3 2 1 1 0 4 2 4 1 4 1 2 6 7 4 2 5 7 11 3 4 7 7 7 7 5 5 2 4 5 7 6 2 1 0 1 1 3 3 3 8 3 3 10 12 10 9 8 2 3 4 5 6 4 3 5 10 15 12 9 8 7 8 6 9 4 7 7 7 7 9 7 7 9 9 8 8 8
Wind_Direction
2 2 1 1 359 357 354 353 350 347 344 341 340 339 339 340 343 343 340 336 327 322 317 316 312 314 315 317 317 325 336 7 325 280 140 237 193 153 184 97 115 138 169 150 14 29 338 354 323 339 352 15 264 182 223 174 191 95 107 124 58 87 73 253 139 165 149 95 83 105 117 116 110 182 155 72 49 75 66 64 61 61 64 75 75 33 57 83
0 359 358 358 356 355 352 350 348 344 340 339 337 338 336 337 340 341 340 334 328 316 313 312 307 309 312 308 314 332 334 257 240 241 234 185 158 155 156 156 155 163 154 125 167 141 41 302 320 13 352 321 251 247 105 292 105 110 109 88 113 104 320 9 84 85 99 97 89 84 117 112 153 172 110 84 65 70 75 59 68 79 78 85 76 17 42 57
359 358 356 355 353 352 351 348 345 341 338 337 336 335 333 334 338 340 337 334 322 315 311 309 310 311 307 309 317 343 335 274 317 278 268 191 173 177 201 186 172 159 154 163 184 125 157 280 4 4 311 308 281 267 30 271 76 96 111 86 67 87 72 22 71 86 111 125 92 88 65 84 11 45 52 95 96 69 83 91 87 95 95 87 61 42 46 72
357 356 354 352 352 349 346 345 343 340 337 336 335 333 330 331 335 338 335 330 324 313 313 312 313 311 306 308 339 333 308 43 332 258 305 169 167 182 205 183 158 145 109 61 82 66 340 316 303 9 317 230 288 317 267 266 79 274 72 97 140 139 92 348 82 99 90 89 95 97 102 73 22 30 61 147 81 45 28 36 130 127 113 98 60 62 53 50
355 354 352 350 349 347 344 341 340 338 335 332 331 330 325 327 332 334 332 330 324 312 311 313 313 305 304 320 334 310 23 53 269 250 187 179 174 197 209 156 154 118 103 77 15 335 266 279 321 1 168 266 252 264 272 136 126 88 93 115 138 115 87 193 62 64 81 74 91 77 68 114 170 36 25 56 98 87 359 344 100 111 95 73 59 71 59 70
353 351 350 348 346 345 342 339 337 337 334 330 328 326 326 325 329 333 331 327 318 312 312 313 310 304 306 344 322 276 59 62 249 277 159 195 197 209 165 141 143 116 78 64 133 280 297 260 170 163 230 189 13 125 255 125 206 85 79 96 103 106 105 76 64 44 63 73 73 62 73 81 69 78 41 60 68 95 15 37 72 82 78 65 46 59 38 331
350 349 347 345 343 342 341 337 335 334 332 328 326 327 325 322 328 330 327 325 314 312 315 311 302 304 315 19 229 49 112 247 308 244 153 192 210 196 150 145 138 77 88 43 201 205 157 313 231 249 265 82 345 114 32 63 49 100 105 107 90 101 101 115 84 76 78 86 81 90 109 71 73 75 28 63 60 75 40 42 65 90 98 95 76 79 153 190
348 346 344 342 341 340 339 337 335 332 329 327 324 324 321 321 324 327 322 320 312 309 309 305 298 301 350 330 8 347 72 255 244 249 182 158 230 215 163 156 125 133 130 223 177 239 31 321 298 294 125 132 197 96 109 72 49 88 91 92 107 90 109 99 92 89 89 87 100 80 70 57 71 96 82 41 59 66 65 57 56 76 101 115 121 142 252 4
345 343 342 340 339 338 337 336 334 331 326 324 322 319 318 320 321 318 316 310 307 307 301 299 293 302 69 76 95 9 307 237 206 188 131 166 228 219 160 262 165 162 200 226 208 202 52 273 328 245 96 102 229 92 322 101 46 37 107 115 113 102 109 99 89 89 91 83 87 80 79 93 118 111 62 72 72 80 99 75 64 84 85 92 102 117 185 285
342 341 339 338 336 336 335 333 330 327 324 322 320 316 315 317 315 310 307 307 308 304 294 287 283 310 298 38 20 44 268 208 145 148 156 193 207 183 292 231 140 132 237 251 189 154 196 238 153 212 121 92 123 72 88 85 137 118 98 107 112 121 104 104 107 95 82 86 91 96 97 168 251 103 70 52 97 97 92 93 80 92 93 98 108 116 136 181
340 337 335 333 330 329 328 326 322 319 319 318 315 312 310 309 310 307 303 296 297 290 273 272 284 255 35 69 72 239 256 136 223 155 174 201 155 191 254 241 193 215 226 265 241 192 229 225 249 191 52 123 81 42 62 127 121 85 99 83 86 88 98 112 105 115 112 65 106 97 69 24 14 48 103 205 86 92 105 95 95 95 97 100 102 103 148 202
334 331 327 325 325 324 323 320 322 324 320 317 312 308 305 306 302 297 296 291 286 268 252 290 141 299 91 96 173 222 244 220 173 186 186 180 185 214 227 223 176 203 197 266 288 282 238 230 154 89 159 171 83 128 58 92 69 98 93 89 79 102 102 126 126 154 114 130 143 114 55 16 359 93 84 84 120 90 81 82 88 99 101 90 82 78 40 273
331 327 326 324 323 322 321 320 324 319 317 313 309 307 304 298 295 290 288 287 252 246 259 131 163 264 69 353 235 234 269 237 190 204 206 207 242 260 238 245 229 221 225 217 248 258 20 166 101 92 182 102 148 97 148 70 98 73 52 111 54 35 80 184 112 140 122 157 171 63 34 310 302 311 335 281 126 95 60 58 64 83 81 89 111 104 4 329
329 328 329 328 325 323 321 321 320 318 316 312 311 304 299 295 287 282 273 254 257 258 277 125 173 169 79 244 277 230 237 204 199 249 231 203 244 273 298 278 268 228 194 218 241 216 144 231 98 117 122 101 121 46 51 7 32 101 207 60 123 72 157 212 155 132 111 179 155 64 115 273 283 293 294 309 117 130 119 46 45 65 77 69 101 108 99 323
337 334 331 327 324 322 320 320 318 317 318 317 309 308 301 296 285 275 259 249 243 238 95 121 349 89 32 275 259 290 274 143 163 227 229 209 247 321 313 310 293 275 250 212 234 317 83 63 67 34 65 31 81 63 42 52 18 62 58 357 350 103 254 322 142 141 120 91 135 92 49 238 260 265 279 275 323 89 104 68 51 34 76 91 105 121 121 133
336 330 327 324 322 320 317 320 315 319 320 316 309 306 302 288 275 262 236 212 160 122 201 25 34 111 340 319 285 323 352 147 211 220 234 168 161 241 264 273 285 290 310 304 98 254 30 99 81 155 92 34 59 81 46 40 349 8 103 188 123 83 157 60 247 146 126 134 240 45 186 338 299 262 279 299 310 72 114 141 139 138 136 94 86 114 129 104
332 328 324 321 320 318 317 321 317 319 319 315 313 303 289 276 262 243 239 172 153 168 182 82 122 147 39 246 328 341 229 259 239 299 252 198 195 230 272 303 300 281 312 325 343 19 359 70 7 65 33 111 137 95 63 28 23 3 23 141 210 129 119 68 354 42 106 122 70 94 118 205 227 214 255 298 313 68 118 225 253 249 179 101 69 43 115 86
328 326 323 320 317 320 317 319 320 319 320 315 310 288 293 294 295 266 92 106 149 158 226 285 335 21 299 328 228 236 217 246 238 233 233 227 202 227 208 257 277 294 1 330 348 302 338 26 41 180 26 44 55 69 103 146 169 190 155 96 103 55 132 164 144 112 85 82 102 87 95 146 189 210 237 251 260 253 223 214 238 280 319 76 75 325 140 129
328 324 321 320 321 325 323 321 321 323 321 316 291 280 245 211 117 84 78 136 118 9 14 314 78 114 150 239 251 303 306 214 283 169 249 240 236 218 318 295 289 272 293 68 285 165 10 51 28 46 123 111 169 162 157 191 154 167 160 157 129 117 153 158 229 98 117 108 107 120 143 157 185 217 227 242 220 229 233 336 3 341 331 10 17 284 319 34
329 326 323 324 324 328 328 325 323 322 330 333 360 10 19 19 7 340 338 55 171 191 207 203 205 240 306 313 72 230 255 347 183 244 258 287 293 358 307 165 249 78 97 228 253 247 131 109 173 219 193 197 179 192 192 186 155 141 89 103 148 142 126 90 98 115 116 98 98 131 131 147 176 200 213 198 186 289 39 327 296 284 266 262 287 278 271 128
329 329 326 326 327 329 330 329 326 325 322 206 302 39 67 351 12 336 316 264 227 213 235 240 207 225 248 301 276 182 207 285 229 275 255 27 80 46 290 333 355 299 255 236 218 289 71 95 223 224 224 183 188 205 218 119 131 141 106 122 148 124 157 161 140 153 127 107 105 117 114 133 163 179 192 161 153 233 222 232 250 227 213 225 242 274 270 263
333 330 328 330 328 331 330 328 329 330 11 132 69 77 228 216 211 222 133 313 315 278 248 255 249 263 241 249 249 193 101 204 264 272 291 72 327 163 294 118 169 223 249 154 9 13 41 126 231 221 224 216 125 200 214 153 148 88 125 142 124 199 120 86 108 121 102 103 127 127 111 135 160 162 165 175 185 188 213 200 201 181 184 187 211 219 204 132
336 332 329 330 333 332 331 324 328 331 210 12 9 345 306 267 327 281 118 163 265 240 232 233 260 246 265 253 222 123 160 213 221 289 273 114 317 205 263 346 315 266 336 26 134 90 44 303 245 230 186 205 22 154 204 82 96 114 119 117 161 188 125 107 193 132 170 117 147 109 100 91 58 77 160 232 177 190 193 207 207 181 172 182 195 188 171 182
335 335 331 332 333 334 325 326 311 321 356 326 274 272 292 317 312 357 67 220 280 307 213 227 225 248 213 177 214 144 170 257 100 257 240 132 185 211 165 218 272 288 263 184 138 144 193 226 233 103 44 86 253 103 131 120 124 194 134 136 148 173 159 139 159 106 81 88 118 88 59 9 21 45 66 52 149 128 163 150 118 263 233 149 102 129 181 180
333 335 334 332 337 333 323 321 47 335 301 303 261 299 296 294 347 13 92 346 10 291 252 287 167 163 210 32 106 109 221 316 221 220 199 160 202 75 237 200 184 228 168 152 96 60 303 257 138 47 263 104 59 38 357 113 89 128 208 151 166 146 112 121 124 119 62 86 166 129 64 351 308 316 114 87 39 62 67 126 160 172 147 123 158 178 180 198
333 334 336 336 336 336 314 11 5 329 331 11 336 322 325 335 348 345 99 81 316 268 340 285 47 251 40 115 113 145 108 265 235 226 197 219 168 174 343 317 134 282 148 140 139 172 175 356 63 353 50 40 106 140 193 109 125 94 192 164 152 131 136 132 124 90 116 142 206 359 120 222 324 355 320 90 121 103 44 126 151 158 163 175 190 180 185 186
333 332 334 337 340 344 9 329 317 309 17 323 332 330 319 321 326 34 60 3 20 261 189 236 81 173 47 198 136 64 54 267 286 259 156 321 82 189 242 283 353 276 171 122 46 9 21 41 22 30 78 49 63 44 281 119 100 89 135 155 138 143 150 147 117 112 159 161 37 46 87 123 68 321 343 311 119 123 86 123 150 162 166 195 201 190 196 198
329 330 330 333 336 341 200 337 343 2 234 264 309 310 313 313 322 64 77 62 281 283 24 329 20 307 42 246 108 131 208 224 58 269 243 248 110 348 91 255 311 267 265 74 133 246 105 30 68 31 56 64 98 208 183 100 114 202 147 156 146 140 129 114 105 98 106 103 60 100 91 73 45 310 335 323 93 67 118 161 180 172 142 169 182 194 207 204
326 327 330 329 330 325 158 175 312 251 242 293 302 305 308 345 69 101 109 101 257 319 230 115 273 47 336 38 6 333 335 89 146 252 288 4 109 148 337 271 131 231 4 118 141 179 302 125 140 132 107 64 268 278 234 103 58 201 104 94 112 121 126 118 115 107 42 76 142 177 99 105 49 315 323 341 59 112 166 134 147 158 154 156 165 195 207 211
322 322 328 329 331 109 296 184 219 244 294 301 307 305 327 51 35 38 14 14 288 284 299 263 15 230 89 134 262 279 243 286 204 333 15 173 289 31 269 164 317 66 30 15 74 192 176 248 142 94 301 229 198 265 187 153 181 101 78 79 66 65 74 66 75 107 71 50 222 224 92 118 134 223 220 87 235 188 159 34 39 60 69 87 148 166 169 194
319 317 322 330 312 264 339 312 252 244 262 312 309 326 58 36 106 98 93 228 313 257 330 8 278 1 60 140 267 286 209 234 280 80 318 6 341 36 1 25 28 51 34 19 6 328 12 341 46 299 148 56 83 350 15 15 7 78 87 115 93 30 23 33 4 40 80 27 286 65 89 73 102 46 339 311 5 323 153 133 118 108 87 49 346 28 61 145
316 314 314 311 217 330 172 223 276 347 340 320 355 36 65 41 8 101 206 286 63 285 29 303 293 324 287 169 158 207 198 103 262 100 184 310 11 12 298 142 90 47 2 330 10 346 10 351 292 10 318 90 14 51 329 17 25 97 85 66 114 212 41 17 12 34 59 153 137 111 99 60 45 30 316 324 282 242 133 136 133 117 85 63 49 36 36 65
315 313 311 279 194 194 242 254 325 322 330 344 48 48 63 95 137 264 276 331 252 234 291 204 331 314 292 28 269 219 189 178 229 214 124 339 99 288 242 83 168 134 149 251 61 29 269 306 6 309 15 39 93 69 331 11 332 63 128 135 95 89 66 108 52 129 61 82 69 87 80 89 109 74 84 277 324 311 149 115 97 98 96 68 53 44 45 40
312 314 312 191 186 210 239 235 254 344 351 17 75 32 48 69 258 235 296 295 257 300 317 352 323 319 205 173 246 162 161 212 141 231 147 264 45 25 326 344 66 31 81 129 83 164 66 359 308 69 337 307 100 134 185 177 12 318 157 122 160 144 155 142 157 140 174 178 157 15 49 184 106 224 176 17 316 277 55 77 82 82 81 77 62 55 45 43
311 298 252 254 241 242 235 241 259 320 29 59 53 80 111 221 230 302 330 322 314 329 349 307 276 318 320 316 277 117 153 329 181 71 66 99 349 106 99 335 18 115 83 74 282 75 155 204 258 206 215 106 76 293 135 100 34 346 120 94 75 184 144 119 189 132 145 114 25 9 104 130 96 73 115 138 244 270 86 81 76 61 59 63 54 51 49 41
315 315 229 263 223 264 186 205 177 154 88 56 76 45 147 191 161 68 59 258 351 8 311 340 34 14 286 303 299 43 4 114 315 86 6 116 157 85 129 41 26 41 101 130 211 76 31 26 274 311 4 92 114 6 9 110 93 303 51 27 171 174 103 99 53 40 95 75 70 311 75 67 52 52 32 317 232 77 77 77 71 70 74 68 59 48 45 56
350 332 14 315 289 213 163 163 145 107 60 89 89 118 210 292 193 149 298 97 173 149 42 60 309 38 319 310 330 9 324 54 320 96 331 54 3 344 355 327 118 58 174 135 341 186 128 260 289 93 44 327 228 94 29 32 139 67 57 250 346 63 98 116 140 347 53 103 111 51 112 147 140 96 64 322 84 73 75 75 69 59 63 72 48 22 11 7
329 329 239 261 243 225 136 144 110 55 77 78 103 211 228 55 298 113 262 63 39 7 87 94 270 59 305 15 321 45 321 99 299 64 215 84 143 270 139 42 23 65 24 62 120 311 99 18 311 304 233 324 359 41 12 344 22 124 169 151 101 178 65 342 93 104 98 76 123 2 312 92 89 116 107 258 104 92 86 89 91 72 59 59 29 10 3 3
257 32 3 271 237 154 142 128 75 77 57 59 256 34 262 214 248 122 241 133 105 117 81 244 164 295 59 326 251 331 35 100 286 114 94 329 83 324 44 112 41 19 46 84 55 292 50 131 301 312 15 313 30 58 41 305 334 26 39 34 3 99 141 87 166 150 107 154 80 17 49 71 285 144 154 169 125 129 118 102 92 82 72 64 61 59 51 49
16 34 306 274 327 101 112 88 58 45 66 127 223 176 217 226 181 260 236 130 267 98 230 175 224 252 324 236 292 253 304 111 116 231 99 264 114 295 24 5 111 14 55 53 115 97 52 107 86 279 320 41 31 5 142 141 75 14 39 358 357 9 223 112 32 99 153 148 137 143 49 1 10 318 156 145 151 139 128 115 100 88 81 78 84 80 67 56
316 105 266 294 328 51 66 51 52 67 127 260 189 219 262 214 130 284 266 169 128 187 155 202 169 156 231 349 337 339 304 296 109 75 134 31 113 50 358 344 108 101 33 26 41 358 70 18 127 311 31 53 195 243 171 113 111 124 130 92 204 109 65 70 70 8 68 109 166 116 131 291 359 65 325 154 149 131 124 117 105 97 90 88 84 75 76 70
68 20 279 300 325 21 77 61 284 213 111 155 227 197 222 199 110 292 346 275 128 130 178 194 231 195 197 214 227 289 177 325 309 97 5 119 359 136 288 49 68 103 102 106 131 260 142 152 93 72 144 124 112 54 72 81 84 80 94 70 132 117 105 97 104 320 64 64 99 94 111 320 303 29 346 242 132 128 128 112 105 101 101 93 82 80 65 74
65 209 255 290 293 62 67 42 301 33 263 231 256 3 86 104 209 225 76 320 46 176 142 199 213 31 250 201 257 249 111 347 54 140 181 110 73 31 216 93 111 51 78 331 29 288 73 71 43 309 313 296 346 29 40 39 71 50 21 32 49 33 102 154 147 161 113 135 84 70 57 278 308 139 237 230 122 124 121 114 111 99 88 83 82 76 71 59
211 272 316 301 47 98 81 189 231 300 266 302 207 202 169 186 143 222 147 271 146 348 154 265 326 176 244 218 214 258 109 74 12 85 71 81 78 299 75 60 80 53 88 223 123 254 68 305 112 58 1 338 348 357 14 346 44 90 86 20 108 100 75 89 92 35 82 316 174 110 124 172 269 216 187 122 114 110 107 89 100 104 95 94 96 92 89 72
281 274 249 296 343 76 176 193 146 187 264 286 328 214 276 333 200 193 167 204 87 146 46 263 198 3 296 266 251 259 247 155 105 313 123 59 120 357 52 77 71 86 65 200 184 74 89 178 95 117 133 120 104 64 81 65 113 296 34 30 27 58 108 70 85 27 85 358 42 108 111 150 213 104 92 92 92 71 63 83 80 97 117 118 112 107 76 63
40 70 299 333 359 24 333 145 129 152 293 323 12 280 161 343 321 354 135 275 162 207 217 276 298 354 270 282 325 330 296 121 119 238 86 125 124 16 9 66 60 104 139 97 65 79 148 75 91 149 147 168 195 203 244 136 34 65 32 54 38 54 75 88 106 81 116 142 70 49 131 136 106 93 92 90 95 102 101 98 106 105 109 115 107 74 59 64
263 79 353 347 331 16 296 351 354 55 242 165 142 216 207 201 270 24 13 97 65 170 299 26 340 19 293 15 273 304 288 74 98 99 69 121 25 132 306 97 71 69 58 50 45 83 63 50 76 127 139 190 187 181 61 101 101 100 81 51 57 61 77 106 113 143 144 97 71 141 150 108 138 119 112 104 104 104 106 116 120 119 110 88 72 75 75 68
65 263 81 185 161 260 10 317 5 307 287 138 243 301 210 146 228 170 327 41 60 21 77 329 10 273 296 293 273 316 336 23 32 120 109 81 106 22 56 356 70 342 65 348 12 109 130 117 246 91 45 77 107 90 97 88 88 101 93 87 80 79 84 91 117 141 110 130 155 190 137 110 140 132 132 127 124 124 129 121 132 124 90 87 87 79 69 60
136 306 133 341 68 266 202 265 302 257 261 201 247 170 238 141 206 222 163 335 58 349 94 51 293 314 314 308 224 206 177 83 49 13 135 134 136 105 51 4 359 5 66 25 12 106 86 84 211 110 94 60 95 103 97 100 97 78 81 86 85 85 92 99 89 139 115 108 125 139 116 118 147 141 129 141 142 117 119 109 78 70 76 85 83 75 66 55
350 60 300 347 64 279 285 309 290 337 343 215 149 254 181 189 190 290 61 100 1 48 101 119 300 298 303 308 312 114 204 161 173 131 210 116 62 81 173 179 165 349 61 72 12 341 103 258 170 70 76 42 51 99 95 102 103 93 81 90 89 85 80 97 108 101 93 87 110 115 109 111 251 145 127 138 110 98 78 73 82 85 85 85 80 72 63 55
299 301 242 57 18 293 328 352 346 336 344 341 57 287 33 229 209 183 147 143 155 161 179 196 198 292 310 334 311 182 192 141 157 149 173 137 146 199 121 265 127 120 19 27 30 332 73 206 51 64 82 45 81 97 97 89 86 93 81 92 104 103 101 127 117 170 121 138 129 110 114 145 210 215 111 101 94 93 99 97 91 93 95 91 84 75 66 56
307 297 322 128 111 327 22 322 317 29 10 266 346 306 275 273 209 119 39 308 342 163 181 160 169 130 328 329 291 268 211 140 148 147 134 125 114 106 127 147 147 143 186 112 155 85 134 112 83 80 82 108 191 121 122 109 75 42 11 185 129 85 112 108 101 127 141 140 129 140 181 176 174 167 112 92 96 97 96 105 103 89 90 91 87 82 75 64